Stündliche Wetter Holubla

Heute, 22 Juni, Dienstag

Zeit Temperatur Niederschläge Wind Luftdruck Luftfeuchtigkeit
00:00 +20°C° 0 mm 3 m/S 743 mmHg 90%
01:00 +20°C° 0 mm 3 m/S 743 mmHg 92%
02:00 +19°C° 0 mm 3 m/S 743 mmHg 93%
03:00 +19°C° 0 mm 3 m/S 743 mmHg 93%
04:00 +19°C° 0 mm 3 m/S 743 mmHg 94%
05:00 +21°C° 0 mm 4 m/S 743 mmHg 88%
06:00 +22°C° 0 mm 4 m/S 744 mmHg 82%
07:00 +25°C° 0 mm 5 m/S 744 mmHg 75%
08:00 +26°C° 0 mm 5 m/S 744 mmHg 71%
09:00 +27°C° 0 mm 5 m/S 744 mmHg 66%
10:00 +29°C° 0 mm 5 m/S 744 mmHg 62%
11:00 +29°C° 0 mm 5 m/S 744 mmHg 59%
12:00 +30°C° 0 mm 5 m/S 744 mmHg 56%
13:00 +32°C° 0 mm 5 m/S 744 mmHg 54%
14:00 +32°C° 0 mm 4 m/S 744 mmHg 55%
15:00 +32°C° 0 mm 4 m/S 744 mmHg 56%
16:00 +32°C° 0 mm 4 m/S 744 mmHg 57%
17:00 +30°C° 0 mm 4 m/S 744 mmHg 63%
18:00 +28°C° 0 mm 4 m/S 744 mmHg 70%
19:00 +27°C° 0 mm 3 m/S 744 mmHg 77%
20:00 +25°C° 1.2 mm 3 m/S 745 mmHg 82%
21:00 +22°C° 1.2 mm 3 m/S 745 mmHg 88%
22:00 +20°C° 1.2 mm 3 m/S 746 mmHg 93%
23:00 +20°C° 0.9 mm 3 m/S 746 mmHg 92%

Morgen, 23 Juni, Mittwoch

Zeit Temperatur Niederschläge Wind Luftdruck Luftfeuchtigkeit
00:00 +20°C° 0.9 mm 3 m/S 745 mmHg 92%
01:00 +19°C° 0.9 mm 2 m/S 745 mmHg 91%
02:00 +20°C° 0.6 mm 2 m/S 745 mmHg 92%
03:00 +21°C° 0.6 mm 1 m/S 746 mmHg 92%
04:00 +21°C° 0.6 mm 1 m/S 746 mmHg 93%
05:00 +22°C° 0.3 mm 1 m/S 746 mmHg 90%
06:00 +23°C° 0.3 mm 2 m/S 747 mmHg 88%
07:00 +23°C° 0.3 mm 2 m/S 747 mmHg 85%
08:00 +25°C° 0 mm 2 m/S 747 mmHg 81%
09:00 +26°C° 0 mm 2 m/S 748 mmHg 76%
10:00 +27°C° 0 mm 1 m/S 748 mmHg 72%
11:00 +28°C° 0.3 mm 1 m/S 748 mmHg 69%
12:00 +29°C° 0.3 mm 1 m/S 748 mmHg 66%
13:00 +30°C° 0.3 mm 1 m/S 748 mmHg 62%
14:00 +30°C° 1 mm 1 m/S 748 mmHg 62%
15:00 +30°C° 1 mm 1 m/S 748 mmHg 62%
16:00 +30°C° 1 mm 1 m/S 748 mmHg 62%
17:00 +29°C° 1 mm 1 m/S 748 mmHg 68%
18:00 +27°C° 1 mm 1 m/S 748 mmHg 74%
19:00 +26°C° 1 mm 1 m/S 748 mmHg 79%
20:00 +25°C° 0.4 mm 1 m/S 748 mmHg 83%
21:00 +24°C° 0.4 mm 2 m/S 748 mmHg 87%
22:00 +21°C° 0.4 mm 2 m/S 748 mmHg 91%
23:00 +21°C° 0.2 mm 2 m/S 748 mmHg 93%

übermorgen, 24 Juni, Donnerstag

Zeit Temperatur Niederschläge Wind Luftdruck Luftfeuchtigkeit
00:00 +21°C° 0.2 mm 2 m/S 748 mmHg 94%
01:00 +20°C° 0.2 mm 2 m/S 748 mmHg 95%
02:00 +20°C° 0 mm 2 m/S 748 mmHg 96%
03:00 +19°C° 0 mm 2 m/S 748 mmHg 97%
04:00 +19°C° 0 mm 2 m/S 748 mmHg 97%
05:00 +20°C° 0 mm 2 m/S 748 mmHg 93%
06:00 +21°C° 0 mm 2 m/S 749 mmHg 89%
07:00 +24°C° 0 mm 2 m/S 749 mmHg 85%
08:00 +25°C° 0 mm 2 m/S 749 mmHg 80%
09:00 +26°C° 0 mm 2 m/S 749 mmHg 75%
10:00 +28°C° 0 mm 2 m/S 749 mmHg 71%
11:00 +28°C° 0 mm 2 m/S 749 mmHg 67%
12:00 +29°C° 0 mm 2 m/S 749 mmHg 64%
13:00 +30°C° 0 mm 1 m/S 749 mmHg 61%
14:00 +30°C° 0.1 mm 1 m/S 748 mmHg 62%
15:00 +29°C° 0.1 mm 2 m/S 748 mmHg 64%
16:00 +29°C° 0.1 mm 2 m/S 748 mmHg 65%
17:00 +28°C° 0 mm 2 m/S 748 mmHg 70%
18:00 +27°C° 0 mm 2 m/S 748 mmHg 76%
19:00 +26°C° 0 mm 2 m/S 747 mmHg 81%
20:00 +25°C° 0.5 mm 2 m/S 747 mmHg 84%
21:00 +24°C° 0.5 mm 3 m/S 747 mmHg 88%
22:00 +22°C° 0.5 mm 3 m/S 747 mmHg 92%
23:00 +21°C° 0.2 mm 3 m/S 747 mmHg 93%

25 Juni, Freitag

Zeit Temperatur Niederschläge Wind Luftdruck Luftfeuchtigkeit
00:00 +21°C° 0.2 mm 3 m/S 747 mmHg 94%
01:00 +20°C° 0.2 mm 2 m/S 746 mmHg 95%
02:00 +20°C° 0 mm 3 m/S 746 mmHg 95%
03:00 +20°C° 0 mm 3 m/S 745 mmHg 96%
04:00 +20°C° 0 mm 3 m/S 745 mmHg 96%
05:00 +21°C° 0 mm 4 m/S 745 mmHg 92%
06:00 +23°C° 0 mm 4 m/S 745 mmHg 88%
07:00 +25°C° 0 mm 5 m/S 744 mmHg 84%
08:00 +27°C° 0 mm 5 m/S 744 mmHg 77%
09:00 +29°C° 0 mm 6 m/S 744 mmHg 70%
10:00 +32°C° 0 mm 6 m/S 744 mmHg 63%
11:00 +32°C° 0.2 mm 6 m/S 744 mmHg 62%
12:00 +32°C° 0.2 mm 6 m/S 744 mmHg 60%
13:00 +32°C° 0.2 mm 6 m/S 744 mmHg 59%
14:00 +30°C° 0.1 mm 6 m/S 744 mmHg 59%
15:00 +30°C° 0.1 mm 5 m/S 744 mmHg 60%
16:00 +29°C° 0.1 mm 5 m/S 744 mmHg 61%
17:00 +27°C° 0 mm 5 m/S 744 mmHg 66%
18:00 +26°C° 0 mm 4 m/S 745 mmHg 70%
19:00 +23°C° 0 mm 4 m/S 745 mmHg 75%
20:00 +21°C° 0 mm 4 m/S 745 mmHg 77%
21:00 +20°C° 0 mm 5 m/S 745 mmHg 78%
22:00 +17°C° 0 mm 5 m/S 746 mmHg 79%
23:00 +16°C° 0 mm 5 m/S 746 mmHg 82%

26 Juni, Samstag

Zeit Temperatur Niederschläge Wind Luftdruck Luftfeuchtigkeit
00:00 +15°C° 0 mm 4 m/S 746 mmHg 84%
01:00 +14°C° 0 mm 4 m/S 746 mmHg 87%
02:00 +14°C° 0 mm 4 m/S 746 mmHg 87%
03:00 +14°C° 0 mm 4 m/S 746 mmHg 88%
04:00 +14°C° 0 mm 4 m/S 746 mmHg 88%
05:00 +14°C° 0 mm 5 m/S 747 mmHg 84%
06:00 +15°C° 0 mm 6 m/S 747 mmHg 80%
07:00 +16°C° 0 mm 7 m/S 747 mmHg 76%
08:00 +17°C° 0 mm 7 m/S 747 mmHg 72%
09:00 +18°C° 0 mm 7 m/S 747 mmHg 69%
10:00 +21°C° 0 mm 8 m/S 747 mmHg 66%
11:00 +21°C° 0 mm 7 m/S 747 mmHg 63%
12:00 +22°C° 0 mm 7 m/S 747 mmHg 61%
13:00 +23°C° 0 mm 7 m/S 747 mmHg 59%
14:00 +22°C° 0 mm 7 m/S 747 mmHg 60%
15:00 +22°C° 0 mm 7 m/S 747 mmHg 62%
16:00 +22°C° 0 mm 7 m/S 747 mmHg 63%
17:00 +20°C° 0 mm 6 m/S 747 mmHg 69%
18:00 +19°C° 0 mm 5 m/S 747 mmHg 76%
19:00 +18°C° 0 mm 4 m/S 747 mmHg 83%
20:00 +17°C° 0 mm 3 m/S 748 mmHg 87%
21:00 +16°C° 0 mm 3 m/S 748 mmHg 90%
22:00 +15°C° 0 mm 2 m/S 748 mmHg 94%
23:00 +15°C° 0 mm 2 m/S 748 mmHg 95%

27 Juni, Sonntag

Zeit Temperatur Niederschläge Wind Luftdruck Luftfeuchtigkeit
00:00 +15°C° 0 mm 2 m/S 748 mmHg 95%
01:00 +15°C° 0 mm 2 m/S 748 mmHg 95%
02:00 +15°C° 0 mm 2 m/S 748 mmHg 94%
03:00 +15°C° 0 mm 2 m/S 748 mmHg 94%
04:00 +15°C° 0 mm 2 m/S 748 mmHg 93%
05:00 +17°C° 0 mm 3 m/S 748 mmHg 87%
06:00 +18°C° 0 mm 3 m/S 748 mmHg 81%
07:00 +20°C° 0 mm 3 m/S 749 mmHg 76%
08:00 +21°C° 0 mm 3 m/S 749 mmHg 71%
09:00 +22°C° 0 mm 3 m/S 749 mmHg 66%
10:00 +24°C° 0 mm 3 m/S 749 mmHg 61%
11:00 +25°C° 0.1 mm 2 m/S 749 mmHg 59%
12:00 +25°C° 0.1 mm 2 m/S 749 mmHg 56%
13:00 +26°C° 0.1 mm 2 m/S 749 mmHg 53%
14:00 +26°C° 0 mm 2 m/S 749 mmHg 53%
15:00 +26°C° 0 mm 2 m/S 749 mmHg 53%
16:00 +26°C° 0 mm 2 m/S 748 mmHg 53%
17:00 +25°C° 0 mm 1 m/S 748 mmHg 58%
18:00 +24°C° 0 mm 1 m/S 748 mmHg 63%
19:00 +23°C° 0 mm 1 m/S 748 mmHg 68%
20:00 +22°C° 0 mm 1 m/S 748 mmHg 71%
21:00 +19°C° 0 mm 0 m/S 748 mmHg 73%
22:00 +18°C° 0 mm 0 m/S 748 mmHg 75%
23:00 +17°C° 0 mm 0 m/S 748 mmHg 77%
Mehr zeigen

Wir brauchen deine Erlaubnis

Meteoprog und unser Service Anbieter werden persönliche Daten aufbewahren, so wie Cookies, Geräte Bezeichnung oder ähnliche Technologien von deinem Gerät und Prozess, so wie Persönliche Daten Inhalte und Werbungen, genauso wie social Media und den Verkehr zu analysieren.

  • Aufbewahrung und/oder Zugang zu deiner Geräte Informationen.

    Cookies, Geräte Bezeichnung oder andere Informationen, können aufbewahrt oder Zugang zu deinem Gerät erhalten, für den Grund, der oben angegeben wird.

  • Personalisierte Werbung und Inhalte, Messungen, Einblick in das Publikum und Produkt Entwicklung.

    Werbungen und Inhalte können personalisiert werden, basierend auf ein Profil. Mehr Daten können besser personalisierte Werbungen und Inhalte hinzufügen. Werbung und Inhalte können gezeigt und gemessen werden. Einblicke über das Publikum, welche die Werbung gesehen haben und den Inhalt, können abgeleitet werden. So wie Daten können genutzt werden, um es zu verbessern oder die Benutzer Erfahrung zu verbessern das System und die Software.

Wenn du “Ich stimme zu” klickst, erlaubst du uns, die Cookies zu benutzen die Geräte Bezeichnung, den Web oder ähnliche Technologien zu benutzen. Deine Settings, können in deinem Gerät bei deinem Browser geändert werden.

Für den bestimmten Zweck, berechtigten Interessen beruhen darauf, mehr als auf den Inhalt. Du kannst mehr darüber in unseren Privaten und Cookie Politik lesen.